Regional Weather Roundup
Issued by NWS

Home | Current Version | Previous Version | Graphics & Text | Print | Product List | Glossary On
Versions: 1 2 3 4 5 6 7 8 9 10 11 12 13 14 15 16 17 18 19 20 21 22 23 24 25 26 27 28 29 30 31 32 33 34 35 36 37 38 39 40 41 42 43 44 45 46 47 48 49 50
000
ASUS43 KTOP 300008
RWRKS

WEATHER ROUNDUP FOR KANSAS
NATIONAL WEATHER SERVICE GOODLAND KS
700 PM CDT FRI APR 29 2016

NOTE:  "FAIR" INDICATES FEW OR NO CLOUDS BELOW 12,000 FEET WITH NO
SIGNIFICANT WEATHER AND/OR OBSTRUCTIONS TO VISIBILITY.

KSZ001>006-013>018-027>032-041>047-300100-
NORTHWEST KANSAS

CITY           SKY/WX    TMP DP  RH WIND       PRES   REMARKS
GOODLAND       SNOW      32  32 100 N9        29.87S VSB 1/2
6HR MIN TEMP:  32; 6HR MAX TEMP:  38; 6HR PCP:  0.57;

HAYS           CLOUDY    46  37  71 E15       29.75S
HILL CITY      LGT RAIN  45  42  89 NE22      29.78F
6HR MIN TEMP:  42; 6HR MAX TEMP:  45; 6HR PCP:  0.10;

RUSSELL        LGT RAIN  47  45  93 E20G32    29.74R
6HR MIN TEMP:  43; 6HR MAX TEMP:  48; 6HR PCP:  0.47;

$$

KSZ061>065-074>080-084>089-300100-
SOUTHWEST KANSAS

CITY           SKY/WX    TMP DP  RH WIND       PRES   REMARKS
DODGE CITY     LGT RAIN  44  42  93 E7        29.80R FOG
6HR MIN TEMP:  41; 6HR MAX TEMP:  49; 6HR PCP:  0.11;

ELKHART          N/A     43  37  79 N14         N/A
GARDEN CITY    CLOUDY    41  39  93 NW22      29.81S FOG
6HR MIN TEMP:  41; 6HR MAX TEMP:  45; 6HR PCP:  0.14;

GREAT BEND     CLOUDY    46  39  76 E17G23    29.75R
LIBERAL        CLOUDY    45  39  81 N20       29.79S
PRATT          CLOUDY    44  43  97 E15G23    29.71R
6HR MIN TEMP:  41; 6HR MAX TEMP:  44; 6HR PCP:  0.41;

$$

KSZ066>073-081>083-090>101-300100-
SOUTHEAST KANSAS

CITY           SKY/WX    TMP DP  RH WIND       PRES   REMARKS
CHANUTE        CLOUDY    58  53  84 E13G28    29.74F
6HR MIN TEMP:  57; 6HR MAX TEMP:  64; 6HR PCP:  0.63;

COFFEYVILLE    CLOUDY    61  58  90 NE13      29.68F
6HR MIN TEMP:  61; 6HR MAX TEMP:  69; 6HR PCP:  0.36;

HUTCHINSON     CLOUDY    50  47  89 NE20G25   29.72F
6HR MIN TEMP:  45; 6HR MAX TEMP:  50; 6HR PCP:  0.34;

MEDICINE LODGE   N/A     51  48  89 NE8       29.69R
NEWTON         CLOUDY    50  45  81 E13G24    29.72F
PARSONS        LGT RAIN  59  57  93 NE9G21    29.71F
6HR MIN TEMP:  59; 6HR MAX TEMP:  66; 6HR PCP:  0.97;

WICHITA INTL   CLOUDY    55  51  86 E15       29.69F
6HR MIN TEMP:  49; 6HR MAX TEMP:  55; 6HR PCP:  0.37;

WICHITA JABRA  CLOUDY    53  50  90 NE16G28   29.69F
6HR MIN TEMP:  48; 6HR MAX TEMP:  54; 6HR PCP:  0.33;

WICHITA MCCONL LGT RAIN  55  52  88 E18G29    29.68F
WINFIELD       CLOUDY    57  53  86 NE20G28   29.65F
6HR MIN TEMP:  53; 6HR MAX TEMP:  57; 6HR PCP:  0.42;

$$

KSZ007>012-019>026-033>040-048>060-102>105-300100-
NORTHEAST KANSAS

CITY           SKY/WX    TMP DP  RH WIND       PRES   REMARKS
CONCORDIA      LGT RAIN  48  45  89 E16G30    29.79F
6HR MIN TEMP:  45; 6HR MAX TEMP:  49; 6HR PCP:  0.22;

EMPORIA        LGT RAIN  52  50  93 NE20G30   29.74F
6HR MIN TEMP:  50; 6HR MAX TEMP:  54; 6HR PCP:  0.38;

LAWRENCE       CLOUDY    53  50  89 E18G29    29.82F
6HR MIN TEMP:  51; 6HR MAX TEMP:  57; 6HR PCP:  0.32;

MANHATTAN      CLOUDY    52  47  83 NE18G25   29.82S
6HR MIN TEMP:  48; 6HR MAX TEMP:  52; 6HR PCP:  0.45;

MARYSVILLE     CLOUDY    50  46  87 E13G26    29.85S
OLATHE IND     LGT RAIN  53  51  93 NE20G30   29.80F
6HR MIN TEMP:  52; 6HR MAX TEMP:  60; 6HR PCP:  0.25;

OLATHE EXE     LGT RAIN  52  50  93 NE18G26   29.83F
6HR MIN TEMP:  51; 6HR MAX TEMP:  59; 6HR PCP:  0.24;

SALINA         LGT RAIN  50  48  93 E13G23    29.76F FOG
6HR MIN TEMP:  46; 6HR MAX TEMP:  51; 6HR PCP:  0.84;

TOPEKA BILLARD CLOUDY    53  50  89 NE14G25   29.82F
6HR MIN TEMP:  51; 6HR MAX TEMP:  55; 6HR PCP:  0.32;

TOPEKA FORBES  CLOUDY    54  50  86 NE16      29.80F
6HR MIN TEMP:  52; 6HR MAX TEMP:  56; 6HR PCP:  0.31;

$$




USA.gov is the U.S. government's official web portal to all federal, state and local government web resources and services.